Retour au catalogue

INTELSAT 701

ActifCommunicationsGEO
NORAD 22871·PAYLOAD· XX

Lancé Oct 22, 1993 depuis Guiana Space Centre

Loading…

TLE

FraisSource: Space-Track

Époque: Sep 14, 2026, 15:09 UTC

1 22871U 93066A   26257.63174197 -.00000115  00000-0  00000-0 0  9992
2 22871  11.0116  45.3958 0003165 116.5173 242.3834  0.99322959119987

Suivez INTELSAT 701 en temps réel avec AllMySat

Download on the App Store